When you browse on this site, cookies collect data to enhance your experience and personalize the content and advertising you see.
Visit our Privacy Policy to learn more. By continuing to use the site, you agree to this use of cookies and data.
  • En España
  • Lista de países
  • Para 7 días
  • Temperatura del agua
  • El tiempo en el mapa
  • Informadores
  • user-avatar
    Iniciar sesión

    Tiempo cada hora Kurylivka

    Hoy, 21 Septiembre, Sábado

    Tiempo Temperatura Precipitaciones Viento Presión Humedad
    00:00 +3°C° 0 mm 4 mps 748 mmHg 81%
    01:00 +3°C° 0 mm 4 mps 749 mmHg 86%
    02:00 +1°C° 0 mm 4 mps 749 mmHg 90%
    03:00 +3°C° 0.1 mm 4 mps 749 mmHg 90%
    04:00 +3°C° 0.1 mm 4 mps 749 mmHg 90%
    05:00 +4°C° 0.1 mm 4 mps 749 mmHg 89%
    06:00 +3°C° 0 mm 5 mps 750 mmHg 85%
    07:00 +5°C° 0 mm 5 mps 750 mmHg 81%
    08:00 +6°C° 0 mm 5 mps 751 mmHg 75%
    09:00 +7°C° 0 mm 5 mps 751 mmHg 65%
    10:00 +9°C° 0 mm 5 mps 751 mmHg 55%
    11:00 +10°C° 0 mm 5 mps 751 mmHg 45%
    12:00 +12°C° 0 mm 5 mps 750 mmHg 40%
    13:00 +13°C° 0 mm 5 mps 750 mmHg 34%
    14:00 +14°C° 0 mm 5 mps 750 mmHg 29%
    15:00 +13°C° 0 mm 4 mps 749 mmHg 32%
    16:00 +13°C° 0 mm 4 mps 749 mmHg 34%
    17:00 +13°C° 0 mm 4 mps 749 mmHg 36%
    18:00 +12°C° 0 mm 4 mps 749 mmHg 44%
    19:00 +11°C° 0 mm 4 mps 748 mmHg 51%
    20:00 +10°C° 0 mm 4 mps 748 mmHg 58%
    21:00 +9°C° 0.2 mm 5 mps 748 mmHg 67%
    22:00 +9°C° 0.2 mm 5 mps 747 mmHg 76%
    23:00 +9°C° 0.2 mm 6 mps 747 mmHg 85%

    Mañana, 22 Septiembre, Domingo

    Tiempo Temperatura Precipitaciones Viento Presión Humedad
    00:00 +9°C° 0.2 mm 6 mps 747 mmHg 85%
    01:00 +10°C° 0.2 mm 6 mps 746 mmHg 85%
    02:00 +10°C° 0.2 mm 7 mps 746 mmHg 85%
    03:00 +11°C° 0 mm 7 mps 746 mmHg 83%
    04:00 +11°C° 0 mm 7 mps 746 mmHg 82%
    05:00 +11°C° 0 mm 7 mps 745 mmHg 81%
    06:00 +11°C° 0 mm 7 mps 745 mmHg 79%
    07:00 +12°C° 0 mm 8 mps 746 mmHg 77%
    08:00 +12°C° 0 mm 8 mps 746 mmHg 75%
    09:00 +12°C° 0 mm 8 mps 746 mmHg 74%
    10:00 +12°C° 0 mm 7 mps 746 mmHg 73%
    11:00 +12°C° 0 mm 7 mps 746 mmHg 72%
    12:00 +14°C° 0 mm 7 mps 746 mmHg 67%
    13:00 +15°C° 0 mm 7 mps 745 mmHg 62%
    14:00 +16°C° 0 mm 7 mps 745 mmHg 57%
    15:00 +16°C° 0 mm 6 mps 745 mmHg 57%
    16:00 +16°C° 0 mm 6 mps 745 mmHg 57%
    17:00 +16°C° 0 mm 5 mps 745 mmHg 57%
    18:00 +15°C° 0 mm 5 mps 745 mmHg 64%
    19:00 +14°C° 0 mm 5 mps 745 mmHg 70%
    20:00 +12°C° 0 mm 5 mps 745 mmHg 77%
    21:00 +12°C° 0 mm 4 mps 746 mmHg 80%
    22:00 +11°C° 0 mm 4 mps 746 mmHg 83%
    23:00 +10°C° 0 mm 3 mps 746 mmHg 86%

    Pasado mañana, 23 Septiembre, Lunes

    Tiempo Temperatura Precipitaciones Viento Presión Humedad
    00:00 +10°C° 0 mm 3 mps 746 mmHg 88%
    01:00 +10°C° 0 mm 4 mps 746 mmHg 89%
    02:00 +10°C° 0 mm 4 mps 747 mmHg 90%
    03:00 +8°C° 0 mm 4 mps 747 mmHg 86%
    04:00 +9°C° 0 mm 3 mps 747 mmHg 81%
    05:00 +8°C° 0 mm 3 mps 747 mmHg 76%
    06:00 +9°C° 0 mm 3 mps 748 mmHg 75%
    07:00 +9°C° 0 mm 3 mps 748 mmHg 74%
    08:00 +9°C° 0 mm 3 mps 748 mmHg 72%
    09:00 +10°C° 0 mm 3 mps 749 mmHg 66%
    10:00 +11°C° 0 mm 3 mps 749 mmHg 60%
    11:00 +11°C° 0 mm 3 mps 749 mmHg 53%
    12:00 +12°C° 0 mm 3 mps 749 mmHg 49%
    13:00 +14°C° 0 mm 2 mps 749 mmHg 45%
    14:00 +15°C° 0 mm 2 mps 749 mmHg 40%
    15:00 +14°C° 0 mm 2 mps 749 mmHg 41%
    16:00 +14°C° 0 mm 2 mps 748 mmHg 41%
    17:00 +14°C° 0 mm 2 mps 748 mmHg 42%
    18:00 +11°C° 0 mm 3 mps 748 mmHg 43%
    19:00 +10°C° 0 mm 3 mps 749 mmHg 44%
    20:00 +8°C° 0 mm 3 mps 749 mmHg 46%
    21:00 +7°C° 0 mm 3 mps 749 mmHg 46%
    22:00 +7°C° 0 mm 3 mps 749 mmHg 46%
    23:00 +5°C° 0 mm 3 mps 749 mmHg 46%

    24 Septiembre, Martes

    Tiempo Temperatura Precipitaciones Viento Presión Humedad
    00:00 +5°C° 0 mm 3 mps 749 mmHg 47%
    01:00 +5°C° 0 mm 3 mps 749 mmHg 48%
    02:00 +4°C° 0 mm 3 mps 749 mmHg 50%
    03:00 +5°C° 0 mm 3 mps 749 mmHg 51%
    04:00 +5°C° 0 mm 3 mps 748 mmHg 52%
    05:00 +5°C° 0 mm 3 mps 748 mmHg 52%
    06:00 +7°C° 0 mm 3 mps 748 mmHg 51%
    07:00 +6°C° 0 mm 4 mps 748 mmHg 49%
    08:00 +7°C° 0 mm 4 mps 748 mmHg 47%
    09:00 +10°C° 0 mm 4 mps 748 mmHg 44%
    10:00 +11°C° 0 mm 4 mps 748 mmHg 41%
    11:00 +12°C° 0 mm 4 mps 748 mmHg 38%
    12:00 +13°C° 0 mm 4 mps 748 mmHg 38%
    13:00 +13°C° 0 mm 4 mps 747 mmHg 38%
    14:00 +13°C° 0 mm 4 mps 747 mmHg 38%
    15:00 +13°C° 0 mm 4 mps 746 mmHg 40%
    16:00 +13°C° 0 mm 4 mps 746 mmHg 41%
    17:00 +12°C° 0 mm 3 mps 745 mmHg 43%
    18:00 +12°C° 0 mm 4 mps 745 mmHg 46%
    19:00 +11°C° 0 mm 4 mps 745 mmHg 49%
    20:00 +11°C° 0 mm 4 mps 745 mmHg 51%
    21:00 +10°C° 0.2 mm 4 mps 745 mmHg 56%
    22:00 +9°C° 0.2 mm 5 mps 745 mmHg 60%
    23:00 +8°C° 0.2 mm 5 mps 745 mmHg 64%

    25 Septiembre, Miércoles

    Tiempo Temperatura Precipitaciones Viento Presión Humedad
    00:00 +8°C° 0.3 mm 5 mps 745 mmHg 68%
    01:00 +7°C° 0.3 mm 5 mps 745 mmHg 71%
    02:00 +7°C° 0.3 mm 5 mps 745 mmHg 75%
    03:00 +7°C° 0 mm 5 mps 745 mmHg 76%
    04:00 +7°C° 0 mm 4 mps 745 mmHg 77%
    05:00 +7°C° 0 mm 4 mps 745 mmHg 78%
    06:00 +8°C° 0 mm 4 mps 745 mmHg 75%
    07:00 +8°C° 0 mm 4 mps 745 mmHg 72%
    08:00 +10°C° 0 mm 4 mps 745 mmHg 70%
    09:00 +12°C° 0 mm 4 mps 745 mmHg 65%
    10:00 +14°C° 0 mm 4 mps 745 mmHg 61%
    11:00 +15°C° 0 mm 4 mps 745 mmHg 56%
    12:00 +17°C° 0 mm 4 mps 745 mmHg 54%
    13:00 +18°C° 0 mm 3 mps 745 mmHg 51%
    14:00 +19°C° 0 mm 3 mps 745 mmHg 49%
    15:00 +19°C° 0 mm 3 mps 744 mmHg 52%
    16:00 +18°C° 0 mm 4 mps 744 mmHg 56%
    17:00 +17°C° 0 mm 4 mps 744 mmHg 60%
    18:00 +14°C° 0 mm 4 mps 744 mmHg 66%
    19:00 +13°C° 0 mm 4 mps 744 mmHg 72%
    20:00 +12°C° 0 mm 4 mps 744 mmHg 79%
    21:00 +12°C° 0 mm 4 mps 744 mmHg 79%
    22:00 +11°C° 0 mm 4 mps 744 mmHg 79%
    23:00 +11°C° 0 mm 3 mps 744 mmHg 80%

    26 Septiembre, Jueves

    Tiempo Temperatura Precipitaciones Viento Presión Humedad
    00:00 +11°C° 0 mm 3 mps 744 mmHg 78%
    01:00 +12°C° 0 mm 3 mps 744 mmHg 77%
    02:00 +12°C° 0 mm 3 mps 744 mmHg 75%
    03:00 +12°C° 0 mm 3 mps 744 mmHg 73%
    04:00 +12°C° 0 mm 3 mps 744 mmHg 72%
    05:00 +12°C° 0 mm 3 mps 744 mmHg 70%
    06:00 +13°C° 0 mm 3 mps 744 mmHg 66%
    07:00 +14°C° 0 mm 3 mps 744 mmHg 62%
    08:00 +15°C° 0 mm 4 mps 744 mmHg 58%
    09:00 +16°C° 0 mm 3 mps 744 mmHg 55%
    10:00 +17°C° 0 mm 3 mps 744 mmHg 52%
    11:00 +18°C° 0 mm 3 mps 744 mmHg 49%
    12:00 +19°C° 0 mm 3 mps 744 mmHg 45%
    13:00 +21°C° 0 mm 4 mps 744 mmHg 41%
    14:00 +22°C° 0 mm 4 mps 743 mmHg 37%
    15:00 +20°C° 0 mm 4 mps 743 mmHg 43%
    16:00 +19°C° 0 mm 3 mps 743 mmHg 49%
    17:00 +17°C° 0 mm 3 mps 743 mmHg 56%
    18:00 +16°C° 0.1 mm 3 mps 743 mmHg 64%
    19:00 +14°C° 0.1 mm 3 mps 743 mmHg 73%
    20:00 +14°C° 0.1 mm 2 mps 743 mmHg 81%
    21:00 +14°C° 0.5 mm 2 mps 743 mmHg 85%
    22:00 +14°C° 0.5 mm 2 mps 743 mmHg 89%
    23:00 +14°C° 0.5 mm 1 mps 743 mmHg 93%
    Mostrar más